Location: Unspecified
(37.6100°N, 2.7800°W)
Time: 10:17:35
(UTC+00:00)

Tiangong 2 - Visible Passes

Search period start: 24 May 2018 00:00
Search period end: 03 June 2018 00:00
Orbit: 382 x 385 km, 42.8° (Epoch: 24 May)

Date Brightness Start Highest point End Pass type
(mag) Time Alt. Az. Time Alt. Az. Time Alt. Az.
24 May 2.6 21:08:10 10° W 21:11:07 35° N 21:13:17 15° NE visible
24 May 4.4 22:45:22 10° WNW 22:45:30 11° WNW 22:45:30 11° WNW visible
25 May 2.1 20:08:08 10° W 20:11:12 48° NNW 20:14:16 10° ENE visible
25 May 2.8 21:45:29 10° WNW 21:48:19 30° N 21:48:34 29° NNE visible
26 May 2.9 20:45:29 10° WNW 20:48:21 31° N 20:51:13 10° ENE visible
26 May 3.7 22:22:29 10° WNW 22:23:42 20° NW 22:23:42 20° NW visible
27 May 2.6 21:22:39 10° WNW 21:25:33 32° N 21:26:32 26° NE visible
28 May 2.8 20:22:44 10° WNW 20:25:35 30° N 20:28:25 10° ENE visible
28 May 2.8 21:59:32 10° WNW 22:01:29 33° NW 22:01:29 33° NW visible
29 May 2.2 20:59:44 10° WNW 21:02:44 40° NNE 21:04:14 23° ENE visible
30 May 2.6 19:59:53 10° WNW 20:02:47 32° N 20:05:40 10° ENE visible
30 May 1.6 21:36:33 10° WNW 21:39:08 56° WNW 21:39:08 56° WNW visible
31 May 1.5 20:36:45 10° WNW 20:39:51 57° NNE 20:41:52 19° E visible
31 May 4.0 22:13:45 10° W 22:14:03 12° W 22:14:03 12° W visible
01 Jun 1.4 21:13:39 10° WNW 21:16:42 48° SSW 21:16:48 48° SSW visible
02 Jun 1.0 20:13:44 10° WNW 20:16:54 89° SSW 20:19:34 14° ESE visible
02 Jun 3.9 21:51:29 10° WSW 21:51:46 11° WSW 21:51:46 11° WSW visible
